Time,TemperatureF,DewpointF,PressureIn,WindDirection,WindDirectionDegrees,WindSpeedMPH,WindSpeedGustMPH,Humidity,HourlyPrecipIn,Conditions,Clouds,dailyrainin,SoftwareType,DateUTC
2013-05-14 00:03:00,51.0,26.0,30.06,SE,130,3.0,5.0,37,-99.99,,,-99.99,,2013-05-14 04:03:00,
2013-05-14 00:13:00,51.0,26.0,30.06,SE,130,3.0,5.0,37,-99.99,,,-99.99,,2013-05-14 04:13:00,
2013-05-14 09:32:00,60.0,36.0,29.91,South,170,12.0,16.0,41,-99.99,,,-99.99,,2013-05-14 13:32:00,
2013-05-14 09:42:00,60.0,36.0,29.91,South,170,12.0,16.0,41,-99.99,,,-99.99,,2013-05-14 13:42:00,
2013-05-14 09:52:00,60.0,36.0,29.91,South,170,12.0,16.0,41,-99.99,,,-99.99,,2013-05-14 13:52:00,
2013-05-14 10:01:00,62.0,37.0,29.88,SSW,199,10.0,23.0,40,-99.99,,,-99.99,,2013-05-14 14:01:00,
2013-05-14 10:11:00,62.0,37.0,29.88,SSW,199,10.0,23.0,40,-99.99,,,-99.99,,2013-05-14 14:11:00,
2013-05-14 10:22:00,63.0,38.0,29.86,SSW,213,13.0,24.0,39,-99.99,,,-99.99,,2013-05-14 14:22:00,
2013-05-14 10:32:00,63.0,38.0,29.85,SSW,192,12.0,25.0,40,-99.99,,,-99.99,,2013-05-14 14:32:00,
2013-05-14 10:42:00,63.0,38.0,29.85,SSW,192,12.0,25.0,40,-99.99,,,-99.99,,2013-05-14 14:42:00,
2013-05-14 10:53:00,64.0,39.0,29.85,SSW,199,13.0,25.0,40,-99.99,,,-99.99,,2013-05-14 14:53:00,
2013-05-14 11:01:00,65.0,40.0,29.83,South,183,7.0,24.0,40,-99.99,,,-99.99,,2013-05-14 15:01:00,
2013-05-14 11:12:00,65.0,40.0,29.83,South,183,7.0,24.0,40,-99.99,,,-99.99,,2013-05-14 15:12:00,
2013-05-14 11:22:00,66.0,40.0,29.83,SSW,200,8.0,20.0,39,-99.99,,,-99.99,,2013-05-14 15:22:00,
2013-05-14 11:33:00,68.0,42.0,29.81,South,171,10.0,20.0,39,-99.99,,,-99.99,,2013-05-14 15:33:00,
2013-05-14 11:43:00,69.0,43.0,29.80,SSW,208,10.0,20.0,39,-99.99,,,-99.99,,2013-05-14 15:43:00,
2013-05-14 11:53:00,69.0,43.0,29.80,SSW,208,10.0,20.0,39,-99.99,,,-99.99,,2013-05-14 15:53:00,
2013-05-14 12:02:00,70.0,43.0,29.79,SSW,209,7.0,21.0,38,-99.99,,,-99.99,,2013-05-14 16:02:00,
2013-05-14 12:12:00,70.0,43.0,29.79,SSW,209,7.0,21.0,38,-99.99,,,-99.99,,2013-05-14 16:12:00,
2013-05-14 12:23:00,72.0,44.0,29.78,SSW,198,8.0,21.0,37,-99.99,,,-99.99,,2013-05-14 16:23:00,
2013-05-14 12:33:00,73.0,45.0,29.77,South,171,11.0,24.0,37,-99.99,,,-99.99,,2013-05-14 16:33:00,
2013-05-14 12:44:00,73.0,45.0,29.77,South,171,11.0,24.0,37,-99.99,,,-99.99,,2013-05-14 16:44:00,
2013-05-14 12:54:00,72.0,45.0,29.76,SSW,213,12.0,22.0,38,-99.99,,,-99.99,,2013-05-14 16:54:00,
2013-05-14 13:03:00,74.0,46.0,29.75,SSW,196,7.0,19.0,37,-99.99,,,-99.99,,2013-05-14 17:03:00,
2013-05-14 13:13:00,74.0,46.0,29.75,SSW,196,7.0,19.0,37,-99.99,,,-99.99,,2013-05-14 17:13:00,
2013-05-14 13:24:00,75.0,48.0,29.74,South,179,8.0,21.0,38,-99.99,,,-99.99,,2013-05-14 17:24:00,
2013-05-14 13:33:00,77.0,47.0,29.74,SSW,203,12.0,21.0,35,-99.99,,,-99.99,,2013-05-14 17:33:00,
2013-05-14 13:43:00,77.0,47.0,29.74,SSW,203,12.0,21.0,35,-99.99,,,-99.99,,2013-05-14 17:43:00,
2013-05-14 13:52:00,77.0,49.0,29.73,SW,215,9.0,21.0,37,-99.99,,,-99.99,,2013-05-14 17:52:00,
2013-05-14 14:02:00,78.0,49.0,29.72,SSW,209,7.0,24.0,36,-99.99,,,-99.99,,2013-05-14 18:02:00,
2013-05-14 14:12:00,78.0,49.0,29.72,SSW,209,7.0,24.0,36,-99.99,,,-99.99,,2013-05-14 18:12:00,
2013-05-14 14:22:00,79.0,49.0,29.72,WNW,287,8.0,21.0,35,-99.99,,,-99.99,,2013-05-14 18:22:00,
2013-05-14 14:32:00,79.0,49.0,29.72,WSW,246,11.0,22.0,35,-99.99,,,-99.99,,2013-05-14 18:32:00,
2013-05-14 14:42:00,79.0,49.0,29.72,WSW,246,11.0,22.0,35,-99.99,,,-99.99,,2013-05-14 18:42:00,
2013-05-14 14:52:00,80.0,50.0,29.71,WSW,238,10.0,21.0,35,-99.99,,,-99.99,,2013-05-14 18:52:00,
2013-05-14 15:01:00,81.0,52.0,29.70,SW,217,6.0,21.0,36,-99.99,,,-99.99,,2013-05-14 19:01:00,
2013-05-14 15:12:00,81.0,52.0,29.70,SW,217,6.0,21.0,36,-99.99,,,-99.99,,2013-05-14 19:12:00,
2013-05-14 15:22:00,81.0,52.0,29.70,SW,224,10.0,19.0,36,-99.99,,,-99.99,,2013-05-14 19:22:00,
2013-05-14 15:32:00,82.0,52.0,29.70,SW,217,7.0,19.0,35,-99.99,,,-99.99,,2013-05-14 19:32:00,
2013-05-14 15:42:00,82.0,52.0,29.70,SW,217,7.0,19.0,35,-99.99,,,-99.99,,2013-05-14 19:42:00,
2013-05-14 15:53:00,82.0,52.0,29.68,WSW,255,11.0,19.0,35,-99.99,,,-99.99,,2013-05-14 19:53:00,
2013-05-14 16:02:00,82.0,52.0,29.68,SW,222,10.0,21.0,35,-99.99,,,-99.99,,2013-05-14 20:02:00,
2013-05-14 16:11:00,82.0,52.0,29.68,SW,222,10.0,21.0,35,-99.99,,,-99.99,,2013-05-14 20:11:00,
2013-05-14 16:23:00,82.0,52.0,29.68,West,263,10.0,22.0,35,-99.99,,,-99.99,,2013-05-14 20:23:00,
2013-05-14 16:33:00,83.0,53.0,29.68,SW,224,10.0,22.0,36,-99.99,,,-99.99,,2013-05-14 20:33:00,
2013-05-14 16:44:00,83.0,53.0,29.68,SW,224,10.0,22.0,36,-99.99,,,-99.99,,2013-05-14 20:44:00,
2013-05-14 16:52:00,83.0,53.0,29.68,WSW,244,7.0,14.0,36,-99.99,,,-99.99,,2013-05-14 20:52:00,
2013-05-14 17:03:00,84.0,53.0,29.68,SW,225,10.0,18.0,35,-99.99,,,-99.99,,2013-05-14 21:03:00,
2013-05-14 17:12:00,84.0,53.0,29.68,SW,225,10.0,18.0,35,-99.99,,,-99.99,,2013-05-14 21:12:00,
2013-05-14 17:23:00,84.0,54.0,29.68,SW,229,5.0,17.0,36,-99.99,,,-99.99,,2013-05-14 21:23:00,
2013-05-14 17:33:00,85.0,54.0,29.67,West,271,8.0,18.0,35,-99.99,,,-99.99,,2013-05-14 21:33:00,
2013-05-14 17:43:00,85.0,54.0,29.67,West,271,8.0,18.0,35,-99.99,,,-99.99,,2013-05-14 21:43:00,
2013-05-14 17:53:00,85.0,55.0,29.68,WSW,248,6.0,16.0,36,-99.99,,,-99.99,,2013-05-14 21:53:00,
2013-05-14 18:03:00,85.0,55.0,29.68,WSW,240,4.0,18.0,36,-99.99,,,-99.99,,2013-05-14 22:03:00,
2013-05-14 18:13:00,85.0,55.0,29.68,WSW,240,4.0,18.0,36,-99.99,,,-99.99,,2013-05-14 22:13:00,
2013-05-14 18:24:00,86.0,55.0,29.68,West,259,7.0,13.0,35,-99.99,,,-99.99,,2013-05-14 22:24:00,
2013-05-14 18:34:00,86.0,54.0,29.68,SW,220,5.0,17.0,33,-99.99,,,-99.99,,2013-05-14 22:34:00,
2013-05-14 18:45:00,86.0,54.0,29.68,SW,220,5.0,17.0,33,-99.99,,,-99.99,,2013-05-14 22:45:00,
2013-05-14 18:55:00,87.0,54.0,29.68,SSW,205,3.0,17.0,32,-99.99,,,-99.99,,2013-05-14 22:55:00,
2013-05-14 19:03:00,87.0,52.0,29.67,West,279,7.0,12.0,30,-99.99,,,-99.99,,2013-05-14 23:03:00,
2013-05-14 19:12:00,87.0,52.0,29.67,West,279,7.0,12.0,30,-99.99,,,-99.99,,2013-05-14 23:12:00,
2013-05-14 19:22:00,87.0,51.0,29.67,West,268,4.0,11.0,29,-99.99,,,-99.99,,2013-05-14 23:22:00,
2013-05-14 19:32:00,87.0,49.0,29.67,WNW,292,2.0,6.0,27,-99.99,,,-99.99,,2013-05-14 23:32:00,
2013-05-14 19:44:00,87.0,49.0,29.67,WNW,292,2.0,6.0,27,-99.99,,,-99.99,,2013-05-14 23:44:00,
2013-05-14 19:53:00,87.0,48.0,29.67,WNW,288,1.0,5.0,26,-99.99,,,-99.99,,2013-05-14 23:53:00,
2013-05-14 20:02:00,87.0,48.0,29.67,WNW,293,1.0,3.0,26,-99.99,,,-99.99,,2013-05-15 00:02:00,
2013-05-14 20:21:00,85.0,46.0,29.67,NE,55,0.0,5.0,26,-99.99,,,-99.99,,2013-05-15 00:21:00,
2013-05-14 20:32:00,85.0,48.0,29.67,NE,55,0.0,1.0,28,-99.99,,,-99.99,,2013-05-15 00:32:00,
2013-05-14 20:52:00,83.0,56.0,29.67,SSW,209,5.0,9.0,40,-99.99,,,-99.99,,2013-05-15 00:52:00,
2013-05-14 21:01:00,81.0,58.0,29.66,SW,226,4.0,11.0,45,-99.99,,,-99.99,,2013-05-15 01:01:00,
2013-05-14 21:11:00,81.0,58.0,29.66,SW,226,4.0,11.0,45,-99.99,,,-99.99,,2013-05-15 01:11:00,
2013-05-14 21:22:00,80.0,58.0,29.66,SW,221,5.0,10.0,47,-99.99,,,-99.99,,2013-05-15 01:22:00,
2013-05-14 21:32:00,79.0,58.0,29.66,SSW,199,7.0,13.0,49,-99.99,,,-99.99,,2013-05-15 01:32:00,
2013-05-14 21:42:00,79.0,58.0,29.66,SSW,199,7.0,13.0,49,-99.99,,,-99.99,,2013-05-15 01:42:00,
2013-05-14 21:52:00,78.0,58.0,29.68,SW,234,5.0,14.0,50,-99.99,,,-99.99,,2013-05-15 01:52:00,
2013-05-14 22:02:00,78.0,59.0,29.68,SSW,205,7.0,12.0,52,-99.99,,,-99.99,,2013-05-15 02:02:00,
2013-05-14 22:11:00,78.0,59.0,29.68,SSW,205,7.0,12.0,52,-99.99,,,-99.99,,2013-05-15 02:11:00,
2013-05-14 22:22:00,77.0,59.0,29.68,SSE,168,5.0,12.0,54,-99.99,,,-99.99,,2013-05-15 02:22:00,
2013-05-14 22:32:00,76.0,60.0,29.68,SSW,194,6.0,14.0,57,-99.99,,,-99.99,,2013-05-15 02:32:00,
2013-05-14 22:42:00,76.0,60.0,29.68,SSW,194,6.0,14.0,57,-99.99,,,-99.99,,2013-05-15 02:42:00,
2013-05-14 22:52:00,75.0,59.0,29.69,SW,224,5.0,12.0,57,-99.99,,,-99.99,,2013-05-15 02:52:00,
2013-05-14 23:01:00,75.0,59.0,29.70,SSW,212,5.0,14.0,58,-99.99,,,-99.99,,2013-05-15 03:01:00,
2013-05-14 23:13:00,75.0,59.0,29.70,SSW,212,5.0,14.0,58,-99.99,,,-99.99,,2013-05-15 03:13:00,
2013-05-14 23:22:00,75.0,59.0,29.70,SSW,207,4.0,12.0,58,-99.99,,,-99.99,,2013-05-15 03:22:00,
2013-05-14 23:33:00,75.0,60.0,29.70,SSW,204,4.0,10.0,59,-99.99,,,-99.99,,2013-05-15 03:33:00,
2013-05-14 23:44:00,74.0,59.0,29.70,SSW,210,4.0,12.0,59,-99.99,,,-99.99,,2013-05-15 03:44:00,
2013-05-14 23:54:00,74.0,59.0,29.70,SSW,210,4.0,12.0,59,-99.99,,,-99.99,,2013-05-15 03:54:00,